Location: ??????????
(54.8537°N, 38.8755°E)
Time: 02:11:38
(UTC+00:00)

Transit 4A - Pass Details

Date: 18 September 2024
Orbit: 865 x 977 km, 66.8° (Epoch: 09 October)

Event Time Altitude Azimuth Distance (km) Brightness Sun altitude
Exits shadow 22:32:29 20° 103° (ESE) 1,938 9.6 -31.7°
Drops below altitude 10° 22:36:27 10° 62° (ENE) 2,598 10.8 -31.5°
Sets 22:39:37 0° 47° (NE) 3,566 11.9 -31.3°
